Location: Atherton
(17.2661°S, 145.4859°E)
Time: 00:57:18
(UTC+10:00)

SR - All Passes

Search period start: 24 June 2025 00:00
Search period end: 04 July 2025 00:00
Orbit: 570 x 855 km, 66.7° (Epoch: 22 June)

Date Brightness Start Highest point End Pass type
(mag) Time Alt. Az. Time Alt. Az. Time Alt. Az.
24 Jun - 02:32:26 10° N 02:36:24 41° ENE 02:40:22 10° SE night (unlit)
24 Jun - 13:04:06 10° S 13:08:53 32° ESE 13:13:53 10° NE daylight
24 Jun - 14:46:18 10° WSW 14:50:24 21° WNW 14:54:37 10° NNW daylight
25 Jun - 01:40:32 10° NE 01:42:18 12° ENE 01:44:04 10° E night (unlit)
25 Jun - 03:20:05 10° NW 03:23:38 26° WSW 03:27:13 10° S night (unlit)
25 Jun - 12:12:18 10° SE 12:14:27 12° ESE 12:16:37 10° E daylight
25 Jun - 13:50:53 10° SSW 13:56:13 57° WNW 14:01:48 10° N daylight
26 Jun - 02:25:09 10° NNW 02:29:21 87° ENE 02:33:34 10° SSE night (unlit)
26 Jun - 12:56:39 10° S 13:01:58 55° ESE 13:07:32 10° NE daylight
26 Jun - 14:41:20 10° W 14:43:21 12° WNW 14:45:23 10° NW daylight
27 Jun - 01:31:46 10° NNE 01:35:12 24° ENE 01:38:37 10° SE night (unlit)
27 Jun - 03:14:28 10° W 03:16:44 14° WSW 03:19:00 10° SSW night (unlit)
27 Jun - 12:03:31 10° SSE 12:07:37 21° ESE 12:11:49 10° ENE daylight
27 Jun - 13:44:21 10° SW 13:49:13 33° WNW 13:54:15 10° N daylight
28 Jun - 02:18:20 10° NW 02:22:20 45° WSW 02:26:23 10° S night (unlit)
28 Jun - 12:49:31 10° SSW 12:55:00 86° WNW 13:00:44 10° NNE daylight
29 Jun - 01:24:04 10° N 01:28:07 49° ENE 01:32:12 10° SE night (unlit)
29 Jun - 11:55:43 10° S 12:00:42 36° ESE 12:05:54 10° NE daylight
29 Jun - 13:38:22 10° WSW 13:42:11 19° WNW 13:46:06 10° NNW daylight
30 Jun - 00:31:42 10° NE 00:34:01 15° ENE 00:36:20 10° ESE night (unlit)
30 Jun - 02:12:02 10° WNW 02:15:23 23° WSW 02:18:46 10° SSW night (unlit)
30 Jun - 11:03:25 10° SSE 11:06:16 14° ESE 11:09:10 10° E daylight
30 Jun - 12:42:42 10° SW 12:48:00 50° WNW 12:53:32 10° N daylight
01 Jul - 01:16:53 10° NNW 01:21:05 79° WSW 01:25:18 10° SSE night (unlit)
01 Jul - 11:48:21 10° SSW 11:53:46 63° ESE 11:59:25 10° NNE daylight
01 Jul - 13:34:21 10° W 13:35:07 10° WNW 13:35:53 10° WNW daylight
02 Jul - 00:23:18 10° NNE 00:26:54 28° ENE 00:30:32 10° SE night (unlit)
02 Jul - 02:06:48 10° W 02:08:30 12° WSW 02:10:12 10° SW night (unlit)
02 Jul - 10:55:01 10° SSE 10:59:25 24° ESE 11:03:57 10° ENE daylight
02 Jul - 12:36:17 10° SW 12:41:00 29° WNW 12:45:51 10° NNW daylight
03 Jul - 01:10:10 10° NW 01:14:04 38° WSW 01:18:01 10° S night (unlit)
03 Jul - 11:41:17 10° SSW 11:46:47 77° WNW 11:52:31 10° NNE daylight
